Thermal, CA

1:23 PM PDT on April 28, 2017 (GMT -0700)
Desert Resorts Regional

Weather History for KTRM - October, 2012

Change the Weather History Date:

Monday, October 8, 2012

  Actual Average Record
Temperature  
Mean Temperature 85 °F 76 °F  
Max Temperature 95 °F 94 °F 108 °F (1996)
Min Temperature 75 °F 58 °F 43 °F (1992)
Degree Days  
Heating Degree Days 0 0  
Month to date heating degree days 0 0  
Since 1 July heating degree days 0 0  
Cooling Degree Days 20 11  
Month to date cooling degree days 162 97  
Year to date cooling degree days 4021 3495  
Growing Degree Days 34 (Base 50)    
Moisture  
Dew Point 53 °F    
Average Humidity 34    
Maximum Humidity 48    
Minimum Humidity 20    
Precipitation  
Precipitation 0.00 in 0.01 in 0.00 in (2017)
Month to date precipitation 0.00 0.06  
Year to date precipitation 2.40 2.45  
Since 1 July precipitation 2.04  
Snow  
Snow 0.00 in - - ()
Month to date snowfall 0.0  
Year to date snowfall 0.0  
Snow Depth 0.00 in    
Sea Level Pressure  
Sea Level Pressure 29.81 in    
Wind  
Wind Speed 7 mph (NW)    
Max Wind Speed 13 mph    
Max Gust Speed 17 mph    
Visibility 10 miles    
Events      
T = Trace of Precipitation, MM = Missing Value Source: NWS Daily Summary

Daily Weather History Graph

Daily Weather History Graph

Search for Another Location

Airport or City:

Trip Planner

Search our weather history database for the weather conditions in past years. The results will help you decide how hot, cold, wet, or windy it might be!

Date:

Astronomy

Oct. 08, 2012 Rise Set
Actual Time 6:44 AM PDT 6:18 PM PDT
Civil Twilight 6:19 AM PDT 6:43 PM PDT
Nautical Twilight 5:50 AM PDT 7:12 PM PDT
Astronomical Twilight 5:21 AM PDT 7:41 PM PDT
Moon No Moon Rise 1:53 PM PDT (10/8)
Length of Visible Light 12h 24m
Length of Day
11h 34m
Last Quarter, 45% of the Moon is Illuminated
Oct 8
Last Quarter
Oct 15
New
Oct 21
First Quarter
Oct 29
Full
Nov 6
Last Quarter

Hourly Weather History & Observations

Time (PDT) Temp. Heat Index Dew Point Humidity Pressure Visibility Wind Dir Wind Speed Gust Speed Precip Events Conditions
12:52 AM 79.0 °F - 57.9 °F 48% 29.80 in 10.0 mi NNW 8.1 mph - N/A   Clear
1:52 AM 78.1 °F - 57.0 °F 48% 29.80 in 10.0 mi NNW 6.9 mph - N/A   Clear
2:52 AM 78.1 °F - 57.0 °F 48% 29.80 in 10.0 mi NNW 9.2 mph - N/A   Clear
3:52 AM 77.0 °F - 55.9 °F 48% 29.82 in 10.0 mi NW 8.1 mph - N/A   Clear
4:52 AM 77.0 °F - 55.0 °F 47% 29.80 in 10.0 mi NW 10.4 mph - N/A   Clear
5:52 AM 77.0 °F - 55.0 °F 47% 29.81 in 10.0 mi NW 9.2 mph - N/A   Clear
6:52 AM 75.9 °F - 54.0 °F 46% 29.83 in 10.0 mi NW 10.4 mph - N/A   Clear
7:52 AM 78.1 °F - 54.0 °F 43% 29.84 in 10.0 mi NW 8.1 mph - N/A   Clear
8:52 AM 81.0 °F 80.7 °F 55.0 °F 41% 29.85 in 10.0 mi NW 10.4 mph - N/A   Clear
9:52 AM 84.0 °F 82.5 °F 53.1 °F 34% 29.86 in 10.0 mi NW 3.5 mph - N/A   Clear
10:52 AM 89.1 °F - 51.1 °F 27% 29.84 in 10.0 mi Calm Calm - N/A   Clear
11:52 AM 90.0 °F 87.5 °F 53.1 °F 28% 29.83 in 10.0 mi Variable 3.5 mph - N/A   Clear
12:52 PM 91.9 °F 90.0 °F 55.0 °F 29% 29.81 in 10.0 mi SSE 9.2 mph - N/A   Clear
1:52 PM 93.9 °F - 52.0 °F 24% 29.78 in 10.0 mi SE 5.8 mph - N/A   Clear
3:52 PM 93.9 °F - 48.0 °F 21% 29.76 in 10.0 mi SSE 6.9 mph - N/A   Clear
5:52 PM 89.1 °F - 44.1 °F 21% 29.75 in 10.0 mi South 3.5 mph - N/A   Clear
6:52 PM 81.0 °F - 50.0 °F 34% 29.76 in 10.0 mi NW 3.5 mph - N/A   Clear
7:52 PM 82.0 °F - 48.0 °F 30% 29.78 in 10.0 mi North 8.1 mph - N/A   Clear
8:52 PM 84.0 °F 82.9 °F 55.0 °F 37% 29.80 in 10.0 mi NNW 13.8 mph - N/A   Clear
9:52 PM 82.0 °F 81.4 °F 55.0 °F 39% 29.81 in 10.0 mi NW 9.2 mph - N/A   Clear
10:52 PM 81.0 °F 80.5 °F 54.0 °F 39% 29.81 in 10.0 mi NW 11.5 mph - N/A   Clear
11:52 PM 79.0 °F - 54.0 °F 42% 29.80 in 10.0 mi NW 9.2 mph - N/A   Clear